Wind_Speed
8 7 5 3 2 2 2 3 3 4 4 5 5 5 5 4 2 3 4 5 4 2 1 3 3 3 3 4 5 4 3 2 3 2 2 3 4 3 3 2 2 1 0 4 6 6 7 9 10 10 11 11 11 11 11 11 12 12 11 11 10 11 11 11 11 10 10 10 10 10 9 9 8 7 6 6 6 6 7 7 8 8 8 7 6
7 6 6 5 4 4 5 5 6 6 6 5 5 5 5 4 3 3 4 4 3 4 6 5 3 0 1 5 5 3 1 4 4 2 0 2 1 1 2 1 2 3 2 3 6 7 8 9 10 11 11 12 12 11 11 11 11 12 12 11 11 11 10 10 10 10 10 10 10 10 10 10 9 8 7 7 6 7 7 7 7 8 8 7 7
7 7 7 6 6 7 7 7 7 7 7 6 5 5 4 4 3 2 1 3 4 6 6 4 2 0 2 4 4 3 4 4 4 0 2 4 4 2 2 1 2 4 3 2 6 8 8 9 10 11 12 12 12 12 10 11 11 11 11 12 12 12 11 10 10 10 10 10 10 10 10 11 10 9 9 8 8 7 7 7 7 7 7 7 7
8 9 8 7 8 9 9 8 7 7 7 6 5 4 4 3 3 3 5 6 6 6 3 3 3 1 2 2 3 4 4 4 4 3 2 6 6 5 3 1 3 4 3 2 4 7 8 9 10 11 11 12 12 12 11 11 12 11 11 12 12 12 11 11 10 10 10 10 11 11 11 11 11 10 10 9 9 8 8 8 8 8 8 8 8
9 10 9 9 10 9 9 8 7 8 7 6 5 4 4 4 3 6 8 7 6 4 3 4 4 1 2 2 3 4 5 6 7 6 3 4 6 6 4 2 5 4 3 2 3 5 6 8 9 9 10 11 12 12 12 12 12 12 12 12 11 11 12 11 11 11 11 11 11 11 11 12 11 11 11 11 11 10 10 9 9 9 9 9 9
11 11 11 11 10 10 9 8 8 8 7 6 6 5 6 5 6 9 10 8 5 5 5 5 3 2 1 2 5 8 9 9 8 7 6 5 4 5 5 4 4 3 3 3 2 4 5 6 8 8 9 10 11 12 13 13 13 13 13 12 11 11 12 12 11 11 12 12 12 12 12 12 12 12 12 12 12 12 12 12 11 11 10 10 10
12 12 12 12 11 11 9 9 9 8 7 6 6 6 6 7 8 10 10 8 6 6 7 6 4 3 3 2 2 4 6 7 7 8 8 6 5 6 6 4 2 2 2 2 2 2 3 5 6 8 9 9 10 12 13 13 13 13 14 13 13 12 12 13 13 12 13 13 13 13 12 12 12 12 12 12 13 13 13 13 13 12 12 12 11
12 12 12 12 12 11 10 9 9 8 8 7 7 7 7 8 9 9 9 8 7 8 8 7 6 6 5 3 1 1 0 3 5 6 5 3 3 4 3 3 4 4 4 4 3 2 1 3 5 6 7 7 8 10 11 12 12 13 14 14 14 13 13 13 13 13 13 13 13 14 13 13 13 12 12 12 12 12 12 12 13 13 13 13 13
11 11 12 13 12 12 11 9 8 8 8 8 8 7 9 10 9 9 9 6 6 10 9 8 8 8 6 3 3 1 2 1 4 4 2 2 1 2 2 4 6 5 4 4 3 2 1 2 4 6 6 6 6 7 8 9 11 12 13 14 15 15 14 13 13 13 13 13 14 14 14 14 14 13 13 13 12 13 13 12 12 13 13 13 14
10 10 11 12 13 13 11 8 7 8 7 7 8 10 11 10 9 9 8 4 6 11 11 9 9 9 7 6 4 2 2 2 4 5 3 2 2 2 2 3 5 4 4 3 2 3 2 2 4 6 6 6 6 7 7 7 8 10 12 14 15 16 16 15 14 14 14 14 14 15 15 15 15 14 14 14 14 14 14 13 13 13 13 13 13
11 11 11 12 13 13 11 9 8 9 8 9 10 11 11 10 9 8 7 6 7 11 11 9 9 9 9 7 4 2 2 3 6 7 4 2 2 2 2 2 2 2 1 1 2 2 2 2 3 5 5 6 6 7 7 7 7 8 11 13 14 14 15 15 15 15 15 15 15 16 16 16 16 15 15 15 15 15 15 15 15 15 14 14 14
12 12 12 12 12 12 11 9 9 9 9 10 11 10 10 10 9 7 7 8 8 10 9 7 7 8 9 9 6 3 2 5 8 7 5 4 2 2 4 4 2 2 1 1 1 1 1 2 3 3 4 4 5 6 7 8 8 8 9 11 12 13 13 14 15 15 15 15 16 16 16 16 16 16 17 17 17 16 16 17 17 17 16 16 16
13 13 13 13 13 12 11 10 10 10 10 11 10 9 10 10 8 8 9 8 8 8 6 4 5 7 8 9 8 5 6 7 8 7 7 7 5 4 5 4 2 1 2 3 1 1 1 1 1 2 3 3 4 5 6 7 7 8 8 8 10 11 11 12 13 14 14 15 15 15 15 15 16 16 17 18 18 18 18 18 19 19 18 18 18
13 14 14 14 14 13 11 11 10 11 11 11 11 10 10 10 10 11 10 9 9 7 4 5 5 6 9 10 8 5 5 6 7 8 10 9 9 7 4 1 1 2 2 3 1 0 1 1 1 2 3 3 3 4 4 5 5 6 7 7 8 9 9 10 11 11 12 12 12 12 13 14 14 15 16 16 17 18 18 18 19 19 20 20 20
14 15 15 14 13 13 12 11 11 12 12 12 11 10 9 10 11 11 10 10 9 7 6 7 5 6 9 9 8 6 5 5 6 8 11 11 10 7 3 1 2 2 2 2 1 1 2 2 2 2 2 3 3 3 3 4 3 3 4 5 6 7 7 8 9 9 9 9 9 10 10 11 12 13 15 15 15 15 16 16 17 18 19 19 19
15 16 16 14 13 13 12 12 12 12 12 12 11 9 9 9 8 9 12 12 11 10 8 7 6 7 9 8 8 6 6 7 6 8 10 10 8 5 4 4 4 3 1 2 1 0 1 2 3 3 2 3 3 3 4 4 3 3 3 3 3 4 5 6 7 7 7 7 8 8 9 10 11 11 13 13 13 14 14 15 16 17 17 18 18
17 17 16 14 14 14 13 13 13 12 13 12 10 9 8 8 7 9 14 14 12 11 9 8 8 8 8 9 8 6 8 13 13 14 13 10 8 6 6 6 4 2 1 1 0 2 2 1 2 2 1 2 2 3 4 4 4 3 3 3 3 3 4 4 5 5 5 6 7 7 8 9 9 10 11 12 12 13 13 14 14 15 16 17 18
19 18 16 15 15 15 15 13 12 12 13 11 9 8 7 7 7 9 14 14 12 11 10 8 9 9 10 11 9 7 12 17 15 15 14 10 8 7 6 5 3 1 1 2 2 2 2 3 3 2 2 2 1 2 3 4 4 3 3 3 4 4 4 4 4 4 4 4 5 5 5 6 7 8 9 10 11 12 13 14 14 15 15 16 16
19 18 16 16 16 16 15 13 12 12 12 10 8 8 8 8 9 9 11 14 12 12 11 9 10 11 12 14 12 9 13 15 12 14 15 11 7 6 5 4 2 2 2 2 1 2 2 3 4 6 6 6 6 4 1 0 1 2 3 4 4 4 5 5 6 6 6 5 5 6 5 5 5 5 6 7 8 9 10 12 13 13 14 15 16
18 17 17 17 17 17 16 13 13 13 11 9 7 8 9 9 10 9 11 14 13 13 12 11 11 12 13 16 14 11 11 11 11 13 13 11 9 6 6 5 4 5 5 4 2 1 3 5 7 8 8 9 9 6 3 4 4 2 0 1 2 2 3 4 5 6 7 7 7 7 7 7 8 7 7 7 7 8 8 9 9 10 11 12 13
18 19 19 18 18 18 16 14 14 13 10 9 9 9 10 10 10 9 11 15 14 13 13 11 10 11 12 14 15 14 12 11 11 11 11 11 10 8 7 8 8 8 8 6 5 3 4 6 7 8 8 8 8 7 5 6 6 6 6 6 6 6 5 4 4 5 6 7 7 8 8 8 9 9 9 9 9 9 10 10 10 10 10 10 11
20 20 19 18 19 18 16 15 14 12 10 10 11 10 10 10 10 10 11 15 16 14 13 12 11 11 11 12 13 14 13 12 13 12 11 10 10 9 7 7 10 10 9 8 7 5 5 6 6 7 8 7 7 7 6 6 8 8 9 10 10 10 9 7 5 5 6 6 7 8 8 8 8 9 9 10 10 10 10 11 11 11 11 12 11
21 22 20 19 19 19 17 15 14 13 12 12 11 11 10 10 12 12 11 13 16 17 16 15 13 11 11 10 10 11 11 12 13 13 12 11 11 10 6 5 9 11 10 9 9 7 5 5 6 6 6 7 8 8 7 8 9 9 10 11 11 11 10 9 7 6 6 7 7 7 8 8 8 9 9 9 10 10 10 11 11 11 12 12 12
23 23 22 21 21 20 18 17 16 14 13 13 11 10 11 12 13 13 12 12 15 18 18 17 15 13 11 10 11 11 11 11 11 11 12 12 11 10 8 6 9 12 10 10 11 10 7 4 5 6 6 8 9 8 8 8 9 10 11 11 11 11 11 11 11 10 10 9 9 9 8 8 8 9 9 9 10 10 10 11 11 11 12 12 13
26 25 23 22 22 21 20 19 17 15 13 13 11 10 12 14 14 13 13 14 16 18 19 17 16 15 13 11 13 13 12 12 13 12 12 11 11 11 10 9 9 10 10 11 13 11 8 6 6 6 7 9 10 10 10 10 10 11 11 12 12 13 13 13 13 13 13 12 12 11 10 9 9 9 9 10 11 12 12 13 13 13 13 14 14
27 26 23 22 22 22 20 19 17 15 14 14 12 11 13 14 14 14 14 15 17 18 18 18 17 16 15 15 15 15 15 14 14 14 13 12 12 12 12 11 10 10 11 11 12 12 10 9 8 8 9 10 11 12 12 11 11 12 13 13 14 15 15 14 14 14 14 14 14 14 14 13 12 11 11 11 12 13 14 14 14 15 15 16 16
28 26 23 23 22 21 21 20 19 17 16 15 14 13 13 14 14 15 15 17 18 18 18 18 18 18 18 18 18 17 17 16 15 14 14 13 13 13 13 13 12 12 12 13 14 14 13 12 11 11 11 11 10 11 12 12 12 12 13 14 16 17 16 15 15 15 15 15 15 15 16 15 15 14 14 13 13 14 14 15 15 16 16 16 17
29 27 25 23 22 22 22 21 20 19 18 17 16 15 14 15 15 16 17 19 20 19 19 19 18 19 19 20 20 19 17 16 16 16 15 15 15 15 15 14 13 12 13 14 15 14 13 13 12 12 11 11 10 9 10 11 11 12 13 16 17 17 15 15 15 15 15 15 16 16 16 16 16 16 16 16 15 15 15 15 15 16 16 17 17
30 28 26 25 23 22 24 23 21 20 19 18 18 16 15 16 16 17 18 20 20 20 20 20 19 20 20 20 21 21 19 18 18 17 16 17 17 16 16 15 14 14 14 15 15 13 12 11 11 11 11 11 11 9 8 9 10 12 15 17 18 18 17 16 16 15 15 15 16 16 17 17 18 18 18 18 17 16 15 15 15 15 16 16 16
30 29 28 27 25 24 25 24 22 22 21 20 19 18 17 17 18 18 18 20 20 20 20 20 20 20 20 20 22 23 22 21 20 19 18 18 18 17 17 16 16 16 16 16 15 13 11 10 9 10 10 10 11 10 8 9 11 15 17 18 18 19 19 18 17 17 17 17 17 17 18 18 18 18 18 18 18 17 17 17 16 15 16 16 17
31 30 30 29 27 27 27 26 24 23 22 21 20 19 19 19 19 19 20 21 21 20 20 20 20 20 21 21 23 24 24 24 24 23 22 21 20 19 19 19 17 16 16 16 16 14 10 9 8 9 10 10 10 11 11 12 14 17 18 19 20 21 21 20 20 19 19 20 20 20 19 18 17 17 17 17 17 17 18 17 16 16 16 16 16
32 32 31 31 30 29 29 28 26 25 24 24 23 21 20 21 21 21 21 22 22 21 21 21 21 22 22 22 22 23 24 25 26 26 25 24 23 21 21 20 18 17 16 16 17 14 10 9 10 10 10 11 11 11 12 13 14 16 18 19 20 21 21 21 21 21 21 21 21 20 19 18 17 17 17 17 18 18 17 16 16 15 13 13 13
34 33 33 32 31 31 30 30 29 28 27 26 25 24 23 23 23 23 23 23 23 23 23 23 23 23 22 22 22 21 22 25 26 26 26 25 24 23 21 20 18 16 15 15 16 15 11 10 11 11 10 12 12 12 13 14 14 16 17 18 19 19 19 20 20 21 20 20 20 19 19 19 18 18 17 17 18 17 16 16 15 14 12 13 14
35 35 34 34 33 32 32 32 31 30 29 27 27 26 26 26 25 25 26 25 24 24 25 25 25 24 23 22 22 21 21 23 24 25 24 24 24 23 21 19 17 15 14 14 14 14 12 10 10 11 11 12 12 12 13 16 16 17 17 17 17 17 18 19 20 20 20 20 20 19 19 19 19 18 17 16 16 16 16 16 16 15 14 16 17
37 36 36 35 34 33 33 34 33 32 31 30 29 28 28 28 28 27 27 27 26 26 26 26 26 26 25 24 22 22 22 23 24 24 23 22 22 21 20 18 16 15 14 13 14 14 14 12 11 11 10 11 13 13 15 18 18 19 19 19 18 18 19 19 20 20 19 19 19 18 18 18 17 16 15 15 15 15 16 16 16 17 18 19 19
39 38 37 36 35 35 35 35 35 34 33 32 31 30 29 29 29 29 29 29 28 27 27 27 27 27 26 25 23 22 23 24 24 24 24 22 21 20 20 19 17 15 14 14 14 14 15 15 13 12 12 12 14 16 17 20 20 21 21 21 20 20 20 20 20 19 18 17 17 17 17 17 16 15 15 15 15 15 16 17 18 19 20 21 21
40 39 38 38 37 37 37 37 37 36 36 34 33 32 30 29 29 30 30 30 30 29 28 28 29 29 27 26 25 23 25 26 26 25 24 22 21 20 20 20 18 16 15 15 15 15 16 17 15 14 15 16 17 18 20 21 22 23 23 22 22 22 23 22 20 19 18 17 17 18 17 17 17 17 17 17 17 18 18 19 20 21 22 23 23
41 40 39 39 39 39 39 38 38 38 37 36 35 34 33 31 30 31 31 30 30 30 30 30 30 30 29 27 25 25 26 26 26 26 24 23 22 21 21 20 18 16 16 16 15 16 17 17 17 17 18 19 20 21 22 22 24 24 24 23 22 22 21 22 21 19 18 18 17 17 17 17 17 18 18 19 20 21 21 22 23 24 25 25 26
42 41 40 40 40 40 39 39 38 38 38 38 37 36 35 33 32 31 31 31 30 30 31 31 30 30 29 27 26 25 26 26 25 25 24 22 21 21 21 20 17 16 17 17 16 16 17 18 19 19 20 21 22 23 24 24 25 25 23 22 23 23 21 20 20 20 18 18 17 17 18 18 20 20 21 22 22 23 24 25 26 27 28 28 29
43 42 41 41 40 40 40 39 39 39 39 40 39 38 37 35 33 32 32 32 31 30 31 32 31 30 30 28 27 26 26 26 25 25 23 21 21 21 21 19 17 17 18 18 17 17 18 19 20 21 21 22 23 24 25 26 26 24 22 21 24 25 22 21 21 20 20 20 20 20 20 21 24 24 24 24 25 26 27 27 28 29 30 30 30
45 43 42 41 41 41 40 40 40 40 40 41 40 39 38 35 33 33 33 33 33 32 31 32 32 31 31 29 28 28 27 26 26 25 23 22 21 21 21 19 18 19 20 19 19 19 20 21 21 22 22 24 25 26 27 26 25 24 23 23 25 25 24 24 23 22 21 21 21 22 23 25 26 27 26 26 27 26 27 28 28 29 29 28 27
46 44 43 42 42 42 41 41 41 41 41 41 41 40 37 34 32 32 32 33 35 34 32 32 33 33 31 30 30 30 28 27 26 26 25 23 21 21 20 20 20 21 22 21 20 21 21 22 23 23 24 26 26 27 27 26 24 24 24 25 25 25 25 25 25 22 21 22 23 25 26 26 26 25 23 23 23 22 23 24 24 24 23 22 20
46 45 44 44 43 42 42 42 41 41 41 41 41 39 36 32 30 30 30 32 36 36 33 32 34 33 32 30 30 30 30 27 27 27 26 23 21 21 20 19 20 21 21 21 22 22 23 24 25 25 26 28 28 28 27 26 25 24 24 23 24 25 24 25 25 23 21 23 26 28 28 25 23 22 21 20 20 20 20 20 20 19 19 18 17
46 46 45 44 43 42 42 41 41 41 40 40 40 38 33 28 29 30 30 32 36 37 35 33 33 33 33 32 31 31 30 29 27 27 26 23 22 22 21 20 21 22 21 22 22 23 24 26 26 27 28 29 29 29 28 26 24 23 22 23 23 23 23 24 25 25 23 24 26 27 26 22 21 23 23 22 22 22 21 20 18 18 18 18 19
46 46 45 44 43 43 42 41 41 40 40 39 39 36 31 27 28 30 31 32 35 36 34 33 32 32 32 32 31 31 31 29 27 27 26 25 24 24 23 23 24 24 24 23 22 24 27 27 27 29 29 29 29 29 27 24 23 22 22 23 22 22 23 24 25 26 25 24 24 26 26 23 23 25 26 25 25 25 23 21 20 21 21 22 23
47 47 45 44 43 42 41 41 40 39 39 38 37 34 29 27 27 28 29 31 34 34 33 31 31 32 33 33 31 30 30 29 27 26 26 26 25 25 25 25 25 24 25 24 24 28 30 27 27 29 28 27 28 29 25 21 20 21 21 21 21 22 24 25 27 28 26 22 22 26 28 26 24 26 28 28 28 27 26 25 25 24 24 24 25
47 46 45 44 43 42 41 40 39 38 38 37 36 32 28 25 25 25 27 30 32 33 32 30 30 32 34 34 30 28 29 29 26 25 24 24 24 25 25 25 25 25 25 25 27 30 27 25 27 28 26 27 28 27 24 20 20 21 21 21 22 23 25 27 29 28 25 21 22 26 28 26 24 27 30 29 29 28 28 28 27 26 27 29 31
47 46 45 44 42 41 40 39 38 38 37 36 34 30 27 24 24 25 28 31 33 33 31 30 30 30 32 33 29 26 27 27 25 23 22 21 23 24 24 23 24 25 24 25 29 30 26 26 28 26 25 26 26 24 21 20 20 22 22 22 23 24 26 27 27 26 24 23 24 26 27 27 26 28 30 29 29 30 31 31 32 33 34 33 33
46 45 44 43 42 41 39 38 38 38 37 35 33 29 26 24 24 25 27 30 33 33 30 28 29 29 31 31 28 25 25 26 23 21 20 21 23 24 23 22 23 24 24 25 29 29 26 26 26 25 25 25 24 22 21 21 21 22 22 23 24 24 23 24 25 25 25 25 26 26 27 27 26 27 30 31 32 34 36 37 37 35 31 26 23
45 44 43 42 41 40 38 38 37 37 36 34 32 29 26 25 24 24 27 30 32 31 28 26 27 28 29 29 26 24 24 24 21 19 18 20 23 24 22 20 21 22 23 26 28 27 26 26 26 26 26 24 22 22 22 22 22 23 24 25 24 22 21 22 24 26 27 27 27 26 26 27 28 29 32 35 37 38 38 36 32 26 22 19 19
44 43 42 41 40 39 38 37 36 35 35 33 31 29 27 26 25 23 25 29 31 29 27 25 25 27 28 27 24 23 24 24 22 20 20 23 24 23 21 20 21 21 22 24 25 24 24 26 28 27 24 22 22 23 24 24 24 24 24 24 22 21 22 22 23 25 28 29 28 27 28 30 32 33 33 33 36 37 34 29 24 20 18 18 19
Wind_Direction
184 191 204 221 262 293 292 282 286 301 304 300 285 281 287 280 262 276 288 281 276 278 120 118 122 122 123 97 67 69 90 42 10 14 92 83 69 92 109 79 62 40 262 225 221 219 219 215 213 215 213 209 209 205 200 202 204 204 202 201 201 201 203 205 204 202 202 203 206 205 204 205 206 206 206 212 214 209 204 198 196 198 207 215 226
196 211 224 242 270 286 285 283 287 291 292 284 272 275 290 281 261 290 293 272 244 187 146 134 130 46 189 141 111 110 218 295 300 330 117 199 135 107 154 90 28 2 344 240 221 217 218 219 217 217 218 215 213 211 207 205 208 209 208 207 205 203 203 207 208 207 207 208 212 212 210 212 213 213 213 214 217 217 214 212 209 209 217 225 233
207 227 237 251 267 275 273 276 285 283 275 266 265 274 293 292 275 272 210 168 162 168 157 156 168 317 192 163 140 167 222 257 254 187 123 194 208 222 201 167 344 337 333 255 220 218 215 216 219 218 220 221 217 215 213 212 213 214 215 214 213 209 205 209 213 212 213 215 217 217 216 217 217 218 219 218 219 220 219 221 223 224 228 235 242
216 233 242 253 259 264 263 268 278 270 266 267 270 275 286 297 266 187 170 166 161 169 169 171 175 195 260 211 143 158 214 239 264 280 159 170 188 210 208 215 312 317 311 260 218 222 220 215 217 218 220 223 221 219 215 216 220 220 219 219 220 220 214 213 216 217 219 221 222 223 223 223 222 222 223 223 222 223 222 223 227 231 234 239 246
223 234 239 246 249 254 258 261 265 259 261 269 277 277 268 270 228 180 179 181 173 176 180 168 175 228 283 275 206 210 245 258 278 280 225 179 184 195 210 268 305 307 294 279 231 226 229 222 218 216 218 223 225 223 218 218 222 223 223 223 223 225 226 223 221 222 225 229 230 229 230 230 230 229 228 229 229 228 228 227 229 233 237 240 244
228 238 241 245 245 251 257 256 256 261 266 269 274 269 254 244 211 190 187 187 185 191 187 180 189 206 215 272 238 238 249 256 270 266 254 252 231 225 251 282 301 299 279 277 232 222 233 226 217 213 214 222 226 226 223 220 220 222 223 226 224 223 228 231 229 228 230 234 237 237 236 236 236 236 237 236 237 237 236 235 234 234 238 243 246
233 242 245 247 248 251 253 250 254 263 265 260 265 261 246 227 207 197 195 196 199 195 189 192 197 192 206 245 225 226 239 248 255 254 259 263 257 257 262 266 242 206 218 192 151 185 228 226 212 209 210 218 225 228 225 218 220 222 221 224 224 221 222 224 225 228 231 233 238 242 242 241 240 240 242 242 244 246 246 246 244 241 242 243 246
237 242 246 248 249 251 247 247 251 260 258 253 261 255 228 211 205 197 202 211 213 206 203 202 203 210 225 233 194 106 109 226 219 230 252 254 248 247 239 200 174 173 169 157 141 136 204 230 218 215 215 218 225 229 225 216 218 221 221 223 223 223 222 221 223 224 227 229 234 239 241 242 243 242 244 245 247 248 249 252 253 252 250 249 250
236 239 244 245 248 251 248 248 252 259 259 258 255 229 203 203 203 196 203 218 225 222 215 206 214 227 228 217 206 133 45 241 189 177 168 119 156 206 183 175 179 188 190 178 175 172 203 241 224 221 221 225 230 236 232 220 219 219 220 224 225 226 226 225 227 226 227 230 232 237 239 242 243 243 245 247 249 250 250 251 254 255 255 256 256
231 232 237 242 246 248 247 248 252 257 257 249 230 206 200 205 207 205 209 226 238 231 225 219 226 230 219 212 203 173 326 283 163 151 158 113 84 144 167 180 186 201 213 210 220 218 239 252 230 225 223 229 233 238 240 232 227 222 221 224 226 230 230 229 232 233 235 237 238 240 243 245 246 246 247 248 249 251 251 252 253 254 256 258 259
227 227 232 240 244 244 245 245 246 252 249 228 210 203 206 212 220 226 230 247 246 237 234 230 230 227 215 214 210 198 267 237 166 160 177 132 94 136 166 171 181 192 217 275 278 248 251 243 231 231 226 226 227 227 233 233 230 226 225 225 225 229 232 232 235 238 240 242 244 246 247 249 250 250 250 250 250 251 252 252 253 254 256 257 258
228 227 231 239 243 243 244 242 243 250 242 219 210 213 218 227 239 237 239 251 242 231 230 218 215 218 210 210 211 186 167 185 178 177 200 201 167 150 152 142 136 136 84 3 306 297 301 238 217 224 220 215 215 215 223 229 227 227 226 224 225 229 232 234 239 241 243 245 246 248 250 251 252 252 252 252 252 253 255 256 256 256 256 256 257
230 230 231 238 243 243 239 237 245 249 236 220 222 230 231 241 247 236 238 243 229 222 218 187 188 193 187 188 187 163 139 157 176 191 217 216 199 188 164 140 117 97 47 26 14 325 318 255 185 193 193 193 203 206 216 226 226 226 225 221 222 227 231 234 239 242 244 248 249 252 255 256 255 254 253 254 254 255 256 257 258 258 258 258 259
232 232 233 238 241 241 237 237 243 241 230 223 229 239 240 245 249 245 239 222 211 215 205 186 188 181 175 172 172 170 159 171 188 205 221 212 195 202 194 137 351 331 348 0 16 220 208 180 155 165 163 163 177 190 212 229 230 228 228 227 224 226 232 235 240 243 245 250 252 253 256 258 258 255 255 255 255 257 257 258 258 259 260 260 260
233 232 233 235 239 240 237 235 236 234 229 228 232 239 241 244 249 244 224 200 192 197 196 201 210 187 179 179 180 171 162 192 210 209 212 201 189 202 211 190 231 263 311 335 346 234 221 217 203 198 185 177 175 178 190 201 211 216 219 229 228 226 234 239 243 245 245 251 253 252 253 256 257 257 258 257 257 259 259 260 259 259 261 261 261
231 231 231 232 236 236 232 231 233 231 229 233 239 243 240 240 244 224 199 183 174 176 182 194 201 184 180 184 185 167 142 154 161 163 175 176 175 192 206 199 206 221 281 314 301 246 223 228 211 200 195 194 191 186 184 180 194 214 215 229 234 230 236 242 250 254 254 257 257 255 254 254 255 256 259 262 262 262 261 260 260 260 261 262 263
231 230 231 233 234 230 226 227 229 228 229 235 240 239 237 234 229 203 188 178 174 178 174 170 176 181 191 187 183 176 147 141 139 143 157 163 160 175 196 193 182 171 186 234 222 81 101 141 172 190 199 198 188 186 191 190 205 217 218 239 251 250 251 250 256 261 260 261 262 262 260 260 262 262 264 266 266 266 265 264 264 264 263 264 265
230 229 231 232 228 224 224 226 225 225 228 233 234 233 236 228 212 196 192 190 188 189 178 169 174 182 195 191 185 182 156 150 149 153 164 171 160 157 173 180 163 137 160 170 128 77 72 83 76 43 14 351 315 245 216 205 209 212 214 233 242 249 259 267 272 275 273 269 268 270 269 267 266 265 266 268 269 270 271 271 271 270 269 268 268
225 225 227 226 223 222 224 224 220 222 225 227 229 231 233 221 204 198 202 203 199 194 185 181 186 187 190 190 192 187 167 166 170 167 171 178 175 164 164 177 190 183 197 199 165 50 25 27 21 10 3 355 342 325 299 187 208 219 220 227 235 243 253 262 271 277 282 283 281 278 278 276 272 269 266 265 267 270 272 274 275 274 273 272 271
220 222 224 223 220 221 223 219 214 218 221 219 221 227 224 208 199 202 207 208 203 196 192 190 195 196 192 191 194 193 185 188 188 180 181 183 185 187 185 197 208 200 210 224 234 313 349 345 349 352 351 345 339 340 9 42 45 59 102 291 295 286 276 268 264 268 273 277 281 281 279 278 276 274 272 269 269 269 271 275 277 279 279 278 275
220 222 224 222 219 220 221 216 214 216 217 214 216 227 222 201 194 197 202 208 208 201 200 200 203 203 197 194 195 197 200 205 199 192 194 191 190 194 197 207 207 204 216 225 228 262 312 334 344 346 344 339 334 342 9 29 33 36 25 7 358 352 342 314 280 271 273 277 280 283 281 280 278 277 275 274 273 272 273 274 275 277 279 281 281
221 223 225 221 218 220 221 218 216 216 217 220 225 233 228 208 200 198 200 210 215 213 210 211 213 208 199 197 198 200 205 211 212 209 206 200 198 198 202 215 214 211 220 223 222 249 296 326 338 338 343 346 341 347 0 6 7 7 2 356 351 349 347 337 309 285 283 284 286 288 288 288 284 282 281 278 277 276 275 274 274 274 275 277 278
223 226 226 219 216 220 223 221 218 217 220 226 236 238 230 218 209 207 211 216 219 222 221 219 219 210 201 201 203 207 212 213 213 213 211 208 206 204 202 218 220 216 224 225 220 241 281 316 335 333 340 348 341 343 348 348 349 346 344 344 341 339 336 333 325 310 302 298 296 294 293 294 291 288 286 284 282 280 278 277 276 276 275 275 275
224 227 224 216 215 220 222 220 218 219 223 229 238 233 222 219 213 210 217 219 218 222 224 222 218 210 205 206 203 207 214 211 207 206 206 207 207 209 209 214 213 215 226 228 224 238 260 283 317 321 324 326 320 319 325 331 334 331 330 331 333 332 327 323 320 316 313 309 307 303 299 297 295 293 292 290 290 288 287 285 284 283 282 281 279
222 224 221 215 214 217 219 218 218 220 224 230 234 225 219 222 216 209 215 217 214 217 221 220 218 215 212 211 205 202 204 207 206 204 204 208 214 219 224 226 216 212 221 225 227 240 250 256 276 293 301 302 298 298 302 308 315 316 317 320 324 326 323 319 317 315 313 311 309 306 303 299 294 292 290 290 290 290 291 290 290 290 288 287 286
224 223 221 216 213 215 218 220 220 220 224 229 229 222 223 226 219 210 213 215 213 215 218 218 218 218 215 210 206 201 200 204 206 203 208 218 225 230 231 231 226 218 219 224 233 246 255 261 269 275 279 281 282 284 286 292 299 302 306 313 319 322 322 320 318 318 315 312 309 305 301 297 292 288 285 284 285 286 287 288 289 290 289 288 286
227 227 223 218 215 213 215 220 223 223 223 226 226 224 226 227 221 215 215 215 213 214 217 218 217 217 215 210 207 209 209 211 209 207 216 227 232 236 235 233 235 232 231 233 240 251 259 264 267 269 268 266 267 272 276 281 287 292 298 305 312 316 317 317 316 316 315 313 311 307 302 297 294 291 288 286 285 284 285 285 285 286 286 285 284
229 229 226 223 221 215 214 219 224 225 226 226 227 229 229 227 221 218 218 215 213 213 216 219 218 218 219 215 213 217 219 220 221 219 224 233 237 239 236 234 239 243 246 248 249 254 259 260 260 259 256 257 259 261 270 278 282 286 291 299 305 307 308 309 309 309 310 310 310 309 306 302 298 297 295 293 291 288 285 285 284 283 283 283 282
228 229 227 227 225 219 217 221 224 227 228 227 229 232 234 231 224 220 221 218 214 212 214 219 220 221 223 222 220 222 222 224 228 228 229 235 239 238 237 241 247 252 258 261 258 256 256 256 255 250 248 255 261 258 261 270 274 280 289 296 300 301 303 304 301 301 302 304 306 305 305 303 301 299 298 297 294 290 287 286 285 284 283 283 282
228 229 229 229 227 222 221 223 225 228 229 228 229 233 235 235 229 224 224 222 217 213 215 219 222 224 226 225 225 226 226 226 228 230 233 236 238 239 242 249 253 256 260 262 261 257 254 253 252 251 251 254 260 262 260 259 265 276 286 291 294 296 299 299 296 296 297 299 301 300 300 300 300 299 298 298 295 291 289 287 283 280 281 282 282
227 228 229 229 228 225 222 224 226 227 230 228 228 231 234 235 233 227 225 225 223 218 218 220 223 227 229 227 227 228 229 229 230 233 236 238 240 244 248 252 257 261 260 258 259 257 255 254 251 254 259 259 262 268 269 267 270 275 279 283 285 288 290 290 290 290 289 291 294 295 295 295 295 296 296 297 295 293 293 290 285 281 279 280 280
228 228 228 229 228 226 224 224 226 227 229 229 228 230 232 233 233 230 227 227 226 223 221 222 224 228 230 229 230 229 228 229 232 234 237 240 243 246 250 254 258 261 257 253 256 259 258 259 258 257 262 267 270 274 277 277 277 278 278 279 280 282 284 286 287 286 285 286 289 291 291 290 290 291 293 294 294 294 295 293 289 285 282 284 285
228 228 229 230 229 227 225 226 228 229 230 231 231 231 231 232 232 230 228 228 228 227 224 224 225 228 230 230 231 230 228 228 231 234 236 239 242 246 250 252 251 252 250 250 256 259 256 254 258 260 263 270 275 278 283 286 285 285 284 284 283 283 285 288 289 289 288 288 290 291 290 290 290 291 293 294 294 293 293 292 289 283 284 291 292
229 229 230 231 231 229 228 228 230 231 232 233 234 234 234 233 232 230 228 226 228 229 227 226 226 228 231 232 233 232 231 230 231 232 235 237 240 245 247 245 243 245 248 252 257 261 260 255 257 260 261 268 275 281 289 294 296 296 294 293 292 289 290 292 292 291 290 288 289 290 290 291 291 292 294 294 292 290 290 291 288 282 285 293 295
229 230 231 232 233 232 231 231 232 233 235 235 236 237 237 236 235 233 231 228 227 230 230 230 228 229 231 234 235 234 233 233 231 232 235 236 238 242 244 244 244 245 247 253 258 265 271 271 267 266 269 275 282 289 298 304 307 307 304 303 301 298 298 298 296 293 290 288 288 289 292 294 293 293 295 295 294 291 288 288 286 284 289 294 296
229 231 232 233 234 235 234 234 234 236 237 237 238 239 240 240 238 238 236 234 231 232 234 235 234 233 233 234 236 235 235 235 234 235 237 238 240 244 248 249 248 246 247 253 258 265 272 276 276 280 286 290 292 298 306 310 311 310 308 309 309 308 308 305 301 296 293 292 292 293 296 297 296 295 295 296 297 296 294 292 290 290 292 293 294
231 231 232 233 235 236 236 236 237 238 239 240 241 242 243 243 241 240 241 240 237 236 236 238 240 240 237 235 236 236 236 236 236 238 240 241 243 246 248 249 248 248 248 250 254 259 265 272 279 286 291 294 299 305 309 311 312 309 307 308 309 310 309 306 301 297 296 296 296 297 299 298 296 296 296 296 295 295 295 293 293 292 292 291 290
231 232 233 234 235 237 238 238 239 241 242 242 243 244 245 244 243 243 243 244 242 241 240 239 241 242 240 238 237 237 238 239 239 240 240 241 243 245 247 248 248 248 248 246 249 254 261 269 278 284 289 294 300 306 309 309 309 308 306 306 306 306 304 300 297 295 295 296 297 298 298 297 297 298 298 298 296 295 293 292 292 291 290 289 289
232 233 234 236 237 238 239 240 241 242 243 243 244 244 245 245 246 246 247 248 247 245 244 242 241 242 242 240 239 239 241 243 242 241 240 240 243 247 247 246 249 253 251 248 249 256 262 269 276 283 289 294 300 305 308 308 306 306 306 305 305 304 300 295 293 295 296 297 297 297 297 299 302 303 302 299 297 295 293 292 291 290 289 290 290
232 234 236 238 238 240 241 242 243 244 244 244 244 245 245 245 248 249 250 252 251 248 246 245 244 244 243 242 241 241 243 245 246 244 242 243 247 250 248 246 250 256 255 254 255 260 265 268 274 282 288 295 300 304 306 306 305 306 307 305 304 305 303 298 297 298 299 299 299 300 301 304 305 305 302 299 296 295 294 292 291 291 291 291 290
234 234 237 239 240 241 242 242 243 244 245 245 246 246 246 247 250 252 253 255 254 251 248 245 245 247 246 243 241 241 243 245 247 246 246 248 249 251 251 250 251 255 256 257 259 262 265 267 273 280 286 293 299 303 305 304 305 307 307 306 305 305 304 302 301 302 302 301 301 302 303 305 306 305 302 301 300 298 297 295 294 293 292 290 288
234 234 236 238 239 241 242 242 243 244 246 247 248 248 249 251 255 257 258 258 256 253 250 247 246 248 249 247 242 241 242 244 246 246 245 246 247 249 253 254 254 257 258 260 261 264 266 268 273 279 283 290 298 302 302 302 304 306 305 304 303 303 303 303 302 301 302 305 308 305 303 305 306 306 305 304 304 302 298 296 294 292 289 285 283
234 235 236 237 239 241 242 243 245 246 247 248 248 249 250 254 257 257 259 260 258 255 252 250 249 249 250 250 245 241 241 242 244 245 244 244 245 248 251 255 256 257 259 261 264 267 269 270 275 279 282 288 295 299 298 298 301 302 302 301 301 302 304 305 303 300 301 308 310 306 302 303 305 305 305 306 306 303 298 295 291 286 281 279 279
234 235 236 237 239 240 242 244 246 247 249 249 249 250 251 254 256 255 256 258 259 257 254 251 250 249 250 253 249 243 240 240 242 244 245 244 244 246 250 254 258 259 258 259 261 267 270 272 274 278 281 288 294 297 298 298 298 299 299 298 299 301 302 302 302 301 303 307 307 304 302 303 305 305 304 304 305 303 298 295 290 282 277 278 279
233 234 236 238 239 241 242 244 246 248 249 250 250 250 250 252 254 254 254 256 258 259 257 253 251 249 251 255 253 246 241 241 242 243 245 245 246 252 256 255 257 260 258 258 262 266 268 268 270 275 282 288 294 297 298 297 297 297 296 295 297 299 299 299 300 302 304 306 304 303 302 303 303 303 301 302 304 303 302 301 296 288 283 283 283
232 233 235 237 239 241 243 245 247 249 250 251 251 250 249 251 252 252 253 254 257 259 259 257 253 251 252 255 256 251 244 241 242 245 247 247 251 261 263 257 257 260 259 262 263 258 257 261 267 275 283 290 293 296 296 293 292 292 292 293 295 296 297 299 300 301 302 302 302 303 302 301 301 299 299 302 304 304 305 305 301 294 289 286 285
231 233 235 236 238 240 243 245 246 248 250 251 251 250 250 251 251 250 249 251 255 257 257 257 256 254 254 256 259 256 247 241 242 246 248 249 255 264 265 259 259 261 260 263 263 259 261 269 273 278 286 291 293 293 290 285 285 287 288 290 293 296 298 299 299 298 297 296 300 303 303 302 300 298 299 303 304 302 302 301 296 291 288 287 287
232 234 235 236 238 239 241 243 245 247 249 250 250 251 252 251 248 246 246 247 251 254 255 257 256 255 255 255 258 258 248 240 241 244 246 252 260 265 262 259 261 261 259 262 265 266 273 279 278 283 291 293 293 292 288 284 284 286 286 287 292 297 298 296 294 292 290 291 296 300 302 302 302 301 302 303 301 298 297 296 293 293 294 295 293
231 233 234 235 237 239 240 242 244 245 247 248 249 250 250 248 244 244 245 246 248 251 253 256 257 256 254 254 257 257 246 237 238 241 246 257 264 262 258 259 261 258 259 263 265 270 279 283 285 291 294 293 292 292 291 290 289 288 287 289 293 295 292 289 290 290 291 292 295 298 301 304 306 305 303 301 299 297 297 298 299 302 304 301 294
231 232 234 235 236 238 240 242 243 244 245 247 247 247 246 242 240 242 245 245 246 248 250 253 255 254 253 254 256 254 243 234 235 242 254 266 267 258 255 261 262 259 262 265 268 275 284 290 293 295 293 293 294 294 294 292 290 288 289 291 292 289 284 287 292 296 296 295 298 301 304 305 305 305 303 303 301 300 301 304 308 310 308 298 290
231 232 232 233 235 236 238 240 241 242 244 245 245 244 242 239 237 240 243 244 244 245 247 251 250 250 251 252 251 249 241 233 235 248 262 268 263 252 250 259 265 266 269 271 274 280 285 290 293 294 293 294 294 292 291 287 285 286 288 286 284 282 285 290 294 298 298 297 300 304 306 305 305 305 306 308 307 305 307 312 315 314 306 298 297
Height
1578 1579 1579 1579 1580 1580 1581 1581 1581 1581 1581 1581 1580 1580 1579 1579 1579 1579 1579 1579 1578 1579 1579 1578 1578 1577 1577 1578 1578 1578 1577 1577 1577 1577 1577 1578 1578 1577 1577 1577 1577 1576 1576 1577 1577 1577 1577 1577 1578 1578 1579 1579 1580 1581 1581 1582 1583 1583 1584 1585 1586 1586 1587 1588 1588 1589 1589 1590 1590 1591 1591 1592 1592 1592 1593 1593 1594 1594 1595 1595 1595 1595 1595 1595 1595
1578 1578 1579 1579 1579 1580 1580 1581 1581 1581 1580 1580 1580 1579 1579 1579 1578 1578 1578 1578 1578 1578 1578 1578 1577 1577 1577 1577 1577 1577 1577 1577 1577 1576 1576 1577 1578 1577 1577 1577 1576 1576 1576 1576 1576 1577 1577 1577 1577 1578 1578 1579 1579 1580 1581 1582 1583 1583 1584 1585 1585 1586 1587 1588 1589 1589 1589 1590 1590 1591 1591 1592 1592 1592 1593 1593 1593 1594 1594 1595 1595 1595 1595 1595 1595
1577 1577 1578 1578 1579 1579 1580 1580 1580 1580 1580 1579 1579 1579 1579 1578 1578 1578 1577 1577 1577 1577 1578 1577 1577 1576 1576 1576 1576 1576 1576 1576 1576 1576 1576 1576 1577 1577 1577 1576 1576 1576 1576 1576 1576 1576 1576 1577 1577 1577 1577 1578 1579 1580 1581 1582 1582 1583 1584 1585 1585 1586 1587 1588 1589 1589 1590 1590 1590 1590 1591 1591 1592 1592 1592 1593 1593 1593 1594 1594 1595 1595 1595 1595 1595
1576 1577 1577 1578 1578 1579 1579 1579 1579 1579 1579 1579 1578 1578 1578 1577 1577 1577 1577 1577 1577 1577 1577 1577 1576 1576 1576 1576 1575 1575 1575 1575 1575 1575 1575 1575 1576 1577 1576 1576 1576 1575 1575 1575 1575 1575 1575 1576 1576 1576 1577 1577 1578 1579 1580 1581 1582 1583 1584 1585 1586 1586 1587 1588 1589 1590 1590 1590 1591 1591 1591 1591 1591 1592 1592 1592 1593 1593 1593 1594 1594 1594 1595 1595 1595
1575 1576 1577 1577 1578 1578 1578 1578 1579 1578 1578 1578 1577 1577 1577 1576 1576 1576 1576 1576 1576 1576 1576 1576 1576 1575 1575 1575 1575 1575 1575 1575 1574 1574 1575 1575 1575 1576 1576 1576 1575 1575 1575 1575 1575 1575 1575 1575 1575 1576 1576 1577 1578 1578 1579 1580 1581 1583 1584 1585 1586 1587 1587 1588 1589 1590 1590 1591 1591 1591 1591 1591 1591 1592 1592 1592 1592 1593 1593 1593 1593 1594 1594 1594 1594
1575 1576 1576 1577 1577 1577 1577 1577 1577 1577 1577 1577 1576 1576 1576 1575 1575 1575 1575 1575 1575 1575 1575 1575 1575 1575 1575 1575 1575 1575 1575 1575 1574 1574 1574 1575 1575 1575 1575 1575 1575 1575 1575 1575 1574 1574 1574 1574 1575 1576 1576 1577 1577 1578 1578 1579 1580 1582 1583 1585 1586 1587 1587 1588 1588 1589 1589 1590 1591 1591 1591 1591 1591 1591 1591 1592 1592 1592 1592 1592 1593 1593 1593 1593 1594
1575 1575 1576 1576 1577 1576 1577 1577 1576 1576 1576 1576 1575 1575 1575 1575 1575 1575 1575 1575 1575 1575 1575 1575 1575 1575 1575 1575 1575 1574 1574 1574 1574 1574 1574 1574 1574 1575 1575 1575 1575 1575 1574 1574 1574 1574 1574 1574 1575 1575 1576 1577 1577 1577 1577 1578 1579 1581 1582 1584 1585 1586 1586 1586 1586 1586 1587 1588 1589 1590 1590 1590 1591 1591 1591 1591 1591 1591 1592 1592 1592 1592 1592 1593 1593
1574 1575 1575 1575 1575 1576 1576 1576 1576 1576 1575 1575 1575 1574 1574 1574 1574 1574 1574 1574 1574 1574 1574 1574 1574 1575 1574 1574 1574 1574 1574 1574 1574 1574 1574 1574 1574 1574 1574 1574 1574 1574 1574 1574 1574 1574 1574 1574 1575 1575 1576 1576 1576 1576 1577 1578 1579 1580 1581 1583 1584 1584 1584 1584 1584 1585 1585 1586 1587 1588 1588 1589 1589 1590 1590 1590 1590 1591 1591 1591 1591 1591 1592 1592 1592
1573 1573 1574 1574 1574 1575 1575 1575 1575 1575 1574 1574 1574 1573 1573 1573 1573 1573 1574 1574 1573 1574 1574 1574 1574 1574 1574 1574 1574 1574 1574 1574 1574 1574 1574 1574 1574 1574 1574 1574 1574 1574 1574 1574 1574 1574 1574 1574 1575 1575 1575 1576 1576 1576 1577 1578 1578 1579 1580 1582 1583 1583 1583 1584 1584 1584 1584 1585 1585 1586 1587 1587 1588 1588 1588 1589 1589 1590 1590 1590 1590 1590 1590 1591 1591
1572 1573 1573 1573 1573 1573 1574 1574 1574 1574 1573 1573 1573 1573 1573 1573 1573 1573 1573 1573 1573 1573 1573 1573 1574 1574 1574 1574 1574 1574 1574 1574 1574 1574 1574 1574 1574 1574 1573 1574 1574 1574 1574 1574 1574 1574 1574 1574 1574 1575 1575 1576 1576 1576 1577 1577 1578 1579 1580 1580 1581 1581 1582 1582 1583 1583 1584 1584 1585 1586 1586 1586 1587 1587 1587 1587 1588 1588 1588 1589 1589 1589 1589 1589 1590
1571 1572 1572 1572 1572 1572 1573 1573 1573 1573 1572 1572 1572 1572 1572 1572 1572 1572 1572 1572 1572 1572 1572 1572 1573 1573 1573 1573 1573 1573 1573 1573 1574 1574 1574 1574 1574 1574 1574 1574 1574 1574 1574 1574 1574 1574 1574 1574 1574 1575 1575 1575 1576 1576 1576 1577 1578 1578 1579 1579 1580 1580 1581 1581 1582 1582 1583 1583 1584 1585 1585 1585 1586 1586 1586 1586 1586 1586 1586 1587 1588 1588 1588 1588 1588
1570 1571 1571 1571 1571 1571 1572 1572 1572 1572 1572 1571 1571 1571 1571 1571 1571 1571 1571 1571 1571 1571 1571 1572 1572 1572 1572 1573 1573 1573 1573 1573 1574 1574 1574 1574 1575 1574 1574 1574 1574 1574 1574 1574 1574 1574 1574 1573 1574 1574 1575 1575 1575 1575 1576 1576 1577 1577 1578 1578 1579 1579 1580 1580 1580 1581 1582 1582 1583 1583 1583 1584 1584 1584 1584 1585 1585 1585 1585 1586 1586 1586 1586 1586 1587
1569 1570 1570 1570 1570 1570 1571 1571 1571 1571 1571 1571 1571 1571 1570 1570 1570 1571 1571 1571 1571 1571 1571 1571 1571 1571 1571 1572 1572 1572 1572 1573 1573 1574 1574 1574 1574 1574 1574 1574 1574 1574 1574 1574 1574 1574 1574 1574 1574 1574 1574 1575 1575 1575 1575 1576 1576 1576 1577 1577 1577 1578 1578 1579 1579 1580 1580 1581 1581 1582 1582 1582 1583 1583 1583 1583 1583 1583 1583 1584 1584 1584 1584 1585 1585
1568 1568 1569 1568 1569 1569 1570 1570 1570 1570 1570 1570 1570 1570 1569 1570 1569 1570 1570 1570 1570 1571 1571 1571 1571 1571 1571 1571 1572 1572 1572 1572 1572 1573 1573 1573 1574 1574 1574 1574 1574 1574 1574 1574 1574 1574 1574 1574 1574 1574 1574 1575 1575 1575 1575 1575 1575 1575 1576 1576 1577 1577 1577 1577 1578 1578 1579 1579 1580 1580 1580 1581 1581 1581 1581 1581 1581 1581 1581 1582 1582 1583 1583 1583 1583
1566 1567 1567 1567 1567 1568 1569 1569 1569 1569 1569 1569 1569 1569 1569 1569 1569 1569 1569 1570 1570 1570 1570 1571 1571 1571 1571 1571 1571 1572 1571 1571 1571 1571 1572 1573 1574 1574 1574 1574 1574 1573 1573 1573 1574 1574 1574 1574 1574 1574 1574 1574 1575 1575 1575 1575 1575 1575 1575 1576 1576 1576 1576 1576 1577 1577 1578 1578 1578 1578 1579 1579 1579 1579 1579 1579 1579 1579 1580 1580 1580 1581 1581 1581 1581
1565 1565 1565 1566 1566 1567 1567 1567 1568 1568 1568 1568 1568 1568 1568 1568 1568 1568 1568 1569 1569 1569 1570 1570 1570 1571 1571 1571 1571 1571 1571 1571 1570 1570 1572 1573 1574 1574 1573 1573 1573 1573 1573 1573 1574 1574 1574 1574 1573 1574 1574 1574 1574 1574 1575 1575 1575 1575 1575 1575 1576 1576 1576 1576 1576 1576 1577 1577 1577 1577 1578 1578 1578 1578 1578 1578 1578 1578 1578 1578 1578 1579 1579 1578 1578
1563 1563 1564 1565 1565 1565 1566 1566 1567 1567 1567 1567 1567 1568 1567 1567 1567 1567 1567 1568 1569 1569 1569 1569 1569 1570 1570 1570 1571 1571 1571 1571 1571 1571 1572 1573 1574 1574 1573 1573 1573 1573 1573 1573 1574 1574 1574 1574 1574 1574 1574 1574 1574 1574 1574 1575 1575 1575 1575 1575 1575 1575 1576 1576 1576 1576 1576 1576 1576 1576 1576 1576 1576 1576 1576 1577 1577 1577 1577 1577 1577 1577 1577 1576 1576
1561 1562 1563 1563 1564 1564 1564 1565 1565 1566 1566 1566 1566 1566 1566 1566 1566 1566 1567 1568 1568 1568 1568 1568 1568 1569 1570 1570 1570 1571 1571 1571 1571 1572 1573 1573 1574 1573 1573 1573 1573 1573 1573 1573 1574 1574 1574 1574 1574 1575 1575 1575 1575 1575 1574 1574 1575 1575 1575 1575 1575 1575 1575 1575 1575 1575 1575 1575 1575 1575 1575 1575 1575 1575 1575 1575 1575 1575 1575 1575 1575 1575 1575 1575 1575
1559 1560 1561 1561 1562 1563 1563 1564 1564 1565 1565 1565 1565 1565 1565 1565 1565 1566 1566 1567 1567 1567 1567 1567 1567 1568 1569 1569 1570 1570 1570 1571 1571 1571 1572 1573 1573 1573 1573 1573 1573 1573 1573 1573 1573 1574 1574 1574 1574 1575 1575 1575 1575 1575 1575 1574 1575 1575 1575 1575 1575 1575 1575 1575 1575 1574 1574 1574 1574 1574 1574 1574 1574 1574 1574 1574 1574 1574 1574 1574 1573 1573 1573 1573 1573
1558 1558 1559 1560 1560 1561 1562 1562 1563 1564 1564 1564 1564 1565 1565 1565 1565 1565 1565 1565 1566 1566 1567 1567 1567 1567 1568 1568 1569 1569 1570 1570 1571 1571 1571 1572 1572 1573 1573 1573 1573 1573 1573 1573 1573 1573 1574 1574 1574 1574 1574 1574 1574 1574 1574 1575 1575 1575 1575 1575 1575 1575 1575 1575 1575 1574 1574 1573 1573 1573 1573 1573 1573 1573 1573 1573 1573 1572 1572 1572 1572 1572 1572 1572 1571
1556 1557 1557 1558 1559 1559 1560 1561 1562 1563 1563 1563 1564 1564 1564 1564 1564 1564 1564 1564 1565 1565 1566 1566 1566 1567 1567 1568 1568 1569 1569 1569 1570 1570 1571 1571 1571 1572 1572 1572 1572 1572 1573 1573 1573 1573 1573 1573 1573 1573 1573 1573 1573 1574 1574 1574 1574 1574 1574 1574 1575 1575 1575 1574 1574 1574 1573 1573 1573 1572 1572 1572 1572 1571 1571 1571 1571 1571 1571 1571 1571 1571 1570 1570 1570
1554 1555 1556 1556 1557 1558 1559 1560 1561 1561 1562 1562 1562 1562 1562 1563 1563 1563 1563 1564 1564 1565 1565 1566 1566 1566 1567 1567 1567 1568 1568 1568 1569 1569 1570 1570 1571 1571 1571 1571 1571 1571 1572 1572 1572 1572 1572 1572 1572 1572 1572 1572 1572 1573 1573 1573 1574 1574 1574 1574 1574 1574 1573 1574 1573 1573 1573 1572 1572 1572 1571 1571 1571 1570 1570 1570 1570 1569 1569 1569 1569 1569 1569 1569 1568
1552 1553 1554 1555 1555 1556 1557 1558 1559 1560 1560 1561 1561 1561 1561 1562 1562 1562 1562 1563 1564 1564 1564 1565 1565 1566 1566 1566 1567 1567 1567 1567 1567 1568 1569 1569 1570 1570 1570 1570 1571 1571 1571 1571 1572 1572 1572 1572 1572 1571 1572 1572 1572 1572 1572 1573 1573 1573 1573 1573 1573 1573 1573 1572 1572 1572 1572 1571 1571 1571 1570 1570 1569 1569 1569 1568 1568 1568 1568 1567 1567 1567 1567 1567 1567
1550 1550 1551 1552 1553 1554 1555 1556 1557 1558 1558 1559 1559 1560 1560 1560 1561 1561 1561 1562 1562 1563 1563 1564 1565 1565 1565 1565 1566 1566 1566 1567 1567 1567 1568 1568 1569 1570 1570 1570 1570 1570 1570 1571 1571 1572 1572 1572 1572 1571 1571 1571 1571 1571 1572 1572 1572 1572 1572 1572 1572 1572 1572 1571 1571 1571 1571 1570 1570 1569 1569 1569 1568 1568 1567 1567 1567 1566 1566 1566 1566 1565 1565 1565 1565
1547 1547 1549 1550 1551 1552 1553 1554 1555 1556 1557 1557 1558 1558 1559 1559 1559 1559 1560 1560 1561 1562 1562 1563 1564 1564 1565 1565 1565 1565 1565 1566 1566 1566 1567 1567 1568 1568 1569 1569 1569 1570 1570 1570 1571 1571 1571 1571 1572 1572 1571 1571 1571 1571 1571 1571 1571 1571 1572 1571 1571 1571 1571 1570 1570 1570 1569 1569 1568 1568 1568 1567 1567 1567 1566 1566 1565 1565 1564 1564 1564 1564 1563 1563 1563
1543 1545 1547 1548 1549 1550 1551 1552 1553 1554 1555 1556 1556 1557 1557 1558 1558 1558 1559 1559 1560 1560 1561 1562 1562 1563 1563 1564 1564 1564 1564 1564 1565 1565 1566 1566 1567 1567 1568 1568 1569 1569 1569 1570 1570 1570 1570 1571 1571 1571 1571 1571 1571 1571 1570 1571 1571 1571 1571 1570 1570 1570 1570 1569 1569 1568 1568 1567 1567 1566 1566 1566 1565 1565 1565 1564 1564 1563 1563 1562 1562 1561 1561 1561 1561
1542 1543 1545 1546 1548 1549 1550 1550 1551 1553 1553 1554 1554 1555 1556 1556 1557 1557 1558 1558 1559 1559 1560 1560 1561 1561 1562 1562 1563 1563 1563 1563 1564 1564 1565 1565 1566 1567 1567 1567 1568 1568 1568 1568 1568 1569 1569 1569 1570 1570 1570 1570 1570 1570 1570 1570 1570 1570 1570 1569 1569 1569 1568 1568 1567 1567 1566 1565 1565 1564 1564 1564 1563 1563 1562 1562 1561 1561 1561 1560 1560 1559 1559 1559 1558
1540 1541 1543 1544 1545 1547 1547 1548 1549 1550 1551 1552 1553 1554 1554 1555 1556 1556 1556 1557 1557 1558 1559 1559 1560 1560 1560 1561 1561 1562 1562 1562 1563 1563 1564 1564 1565 1566 1566 1566 1567 1567 1567 1567 1567 1567 1567 1568 1568 1568 1568 1568 1568 1568 1568 1568 1568 1569 1568 1568 1567 1567 1567 1566 1566 1565 1564 1564 1563 1563 1562 1562 1561 1561 1560 1560 1559 1559 1558 1558 1557 1557 1557 1556 1556
1537 1539 1540 1541 1543 1544 1545 1546 1547 1548 1549 1550 1551 1552 1553 1553 1554 1555 1555 1556 1556 1556 1557 1558 1558 1559 1559 1560 1560 1560 1561 1561 1561 1562 1562 1563 1564 1564 1565 1565 1565 1566 1566 1565 1565 1565 1566 1566 1566 1567 1567 1567 1567 1567 1567 1567 1567 1567 1567 1566 1566 1565 1565 1565 1564 1563 1563 1562 1561 1561 1560 1559 1559 1558 1558 1557 1557 1556 1556 1555 1555 1554 1554 1554 1554
1535 1536 1537 1538 1540 1541 1542 1543 1544 1546 1547 1548 1549 1550 1551 1551 1552 1553 1554 1555 1555 1555 1555 1555 1556 1557 1557 1558 1558 1559 1559 1560 1560 1561 1561 1562 1562 1563 1563 1564 1564 1564 1564 1564 1564 1564 1564 1565 1565 1565 1565 1565 1565 1565 1565 1565 1565 1565 1565 1564 1564 1563 1563 1562 1562 1561 1561 1560 1559 1559 1558 1557 1557 1556 1555 1555 1554 1553 1553 1553 1552 1552 1552 1552 1551
1532 1533 1534 1535 1537 1538 1539 1540 1542 1543 1545 1546 1547 1548 1548 1549 1550 1551 1552 1553 1553 1553 1553 1553 1554 1555 1555 1556 1556 1557 1558 1558 1559 1559 1559 1560 1561 1561 1562 1562 1563 1563 1563 1563 1563 1563 1563 1564 1564 1564 1564 1564 1563 1563 1563 1563 1563 1563 1562 1562 1561 1561 1560 1560 1559 1559 1559 1558 1557 1556 1556 1555 1554 1553 1553 1552 1551 1551 1550 1550 1550 1550 1549 1549 1549
1529 1530 1531 1532 1533 1535 1536 1538 1539 1541 1542 1543 1544 1545 1546 1547 1547 1548 1549 1550 1550 1551 1551 1551 1552 1553 1553 1554 1554 1555 1556 1556 1557 1558 1558 1558 1559 1559 1560 1561 1561 1562 1562 1562 1561 1562 1562 1562 1562 1562 1562 1562 1562 1562 1562 1561 1561 1561 1560 1559 1558 1558 1557 1557 1556 1556 1556 1555 1555 1554 1553 1552 1551 1550 1550 1549 1549 1548 1548 1547 1547 1547 1547 1546 1546
1525 1526 1528 1529 1530 1532 1533 1535 1536 1537 1539 1540 1541 1542 1543 1544 1545 1546 1547 1547 1548 1548 1549 1549 1550 1551 1551 1551 1552 1553 1554 1555 1555 1556 1557 1557 1558 1558 1558 1559 1560 1560 1560 1560 1560 1560 1561 1561 1561 1561 1561 1560 1560 1560 1560 1560 1559 1559 1558 1557 1556 1555 1555 1554 1553 1553 1552 1552 1551 1550 1550 1549 1548 1547 1547 1546 1546 1545 1545 1545 1545 1544 1544 1544 1544
1522 1523 1524 1526 1527 1529 1530 1532 1533 1534 1536 1537 1539 1539 1540 1541 1542 1543 1544 1544 1545 1546 1546 1547 1548 1549 1549 1550 1551 1552 1553 1553 1554 1555 1556 1556 1557 1557 1557 1558 1558 1559 1559 1559 1559 1558 1559 1559 1559 1559 1559 1559 1559 1559 1558 1558 1557 1557 1555 1555 1554 1553 1552 1551 1550 1549 1549 1548 1548 1547 1546 1546 1545 1544 1544 1543 1543 1542 1542 1542 1542 1542 1542 1541 1541
1519 1520 1521 1523 1524 1526 1527 1528 1530 1531 1533 1534 1535 1536 1537 1538 1540 1541 1541 1542 1542 1543 1544 1545 1546 1547 1548 1548 1549 1550 1551 1552 1553 1553 1554 1555 1555 1556 1556 1556 1557 1557 1557 1557 1557 1557 1557 1557 1557 1557 1557 1557 1557 1557 1556 1556 1555 1554 1553 1552 1551 1550 1549 1548 1547 1546 1546 1545 1545 1544 1544 1543 1542 1542 1541 1540 1540 1539 1539 1539 1539 1539 1539 1538 1538
1515 1517 1518 1520 1521 1523 1524 1525 1526 1527 1529 1531 1532 1533 1535 1536 1537 1538 1539 1540 1540 1541 1542 1543 1544 1545 1546 1547 1548 1549 1550 1550 1551 1552 1553 1553 1554 1554 1554 1555 1555 1556 1556 1556 1556 1556 1555 1555 1555 1555 1555 1555 1554 1554 1554 1553 1552 1552 1550 1549 1548 1547 1546 1545 1544 1543 1542 1542 1542 1541 1540 1540 1539 1539 1538 1537 1537 1536 1536 1536 1536 1535 1535 1535 1534
1511 1513 1515 1517 1518 1519 1520 1521 1522 1524 1525 1528 1529 1530 1532 1534 1535 1536 1537 1538 1539 1539 1540 1542 1542 1543 1545 1546 1546 1548 1548 1548 1549 1550 1551 1552 1553 1553 1553 1553 1554 1554 1554 1554 1554 1554 1553 1553 1553 1553 1553 1552 1552 1552 1551 1551 1550 1549 1548 1547 1546 1545 1544 1542 1541 1540 1540 1539 1539 1538 1537 1537 1536 1536 1535 1534 1534 1533 1533 1532 1532 1532 1531 1531 1531
1507 1509 1511 1513 1514 1515 1516 1518 1519 1521 1523 1525 1526 1528 1529 1531 1532 1533 1534 1536 1537 1538 1538 1539 1540 1541 1542 1544 1545 1546 1546 1547 1548 1549 1550 1551 1551 1551 1551 1552 1552 1552 1551 1552 1552 1552 1551 1551 1551 1551 1551 1550 1550 1549 1549 1548 1547 1546 1545 1544 1543 1543 1542 1540 1539 1539 1538 1537 1536 1536 1535 1534 1533 1533 1532 1531 1530 1530 1529 1529 1529 1529 1528 1528 1527
1504 1505 1507 1508 1510 1511 1513 1515 1516 1518 1520 1522 1523 1525 1527 1528 1530 1531 1532 1533 1534 1535 1536 1536 1538 1539 1540 1542 1543 1544 1544 1545 1546 1547 1548 1548 1549 1549 1549 1549 1550 1550 1549 1549 1549 1550 1549 1549 1549 1549 1549 1548 1548 1547 1547 1546 1545 1544 1543 1541 1540 1540 1539 1538 1537 1536 1536 1535 1534 1533 1532 1531 1531 1530 1529 1528 1528 1527 1527 1526 1526 1525 1524 1524 1523
1500 1501 1503 1505 1506 1508 1510 1512 1514 1515 1517 1518 1520 1521 1523 1526 1527 1528 1530 1530 1531 1532 1533 1534 1535 1536 1537 1539 1540 1541 1542 1543 1544 1544 1545 1546 1546 1547 1547 1547 1548 1548 1547 1547 1547 1548 1548 1547 1547 1547 1547 1546 1546 1545 1545 1544 1542 1541 1540 1539 1537 1536 1536 1535 1534 1533 1533 1532 1531 1530 1530 1529 1527 1526 1525 1525 1524 1524 1523 1522 1521 1520 1520 1519 1518
1496 1498 1500 1502 1504 1505 1507 1509 1511 1512 1513 1514 1516 1518 1520 1523 1525 1526 1526 1527 1528 1529 1530 1531 1532 1533 1534 1535 1537 1538 1539 1540 1541 1542 1543 1544 1544 1544 1545 1545 1545 1546 1546 1546 1545 1546 1546 1546 1545 1545 1545 1544 1543 1543 1543 1542 1540 1539 1538 1537 1535 1534 1533 1531 1531 1531 1530 1529 1528 1527 1526 1525 1524 1523 1522 1521 1521 1520 1519 1517 1517 1516 1515 1514 1514
1493 1495 1497 1499 1500 1502 1504 1505 1507 1508 1509 1510 1512 1515 1518 1520 1522 1523 1523 1523 1524 1525 1527 1528 1529 1530 1531 1532 1533 1535 1536 1537 1538 1539 1540 1541 1541 1542 1542 1543 1543 1544 1544 1544 1544 1544 1544 1544 1544 1544 1543 1542 1541 1541 1540 1539 1538 1536 1535 1534 1533 1532 1530 1528 1528 1528 1528 1526 1525 1523 1523 1523 1521 1519 1519 1518 1517 1517 1515 1514 1513 1512 1511 1511 1510
1490 1492 1494 1495 1497 1499 1500 1502 1504 1504 1505 1507 1509 1512 1515 1517 1519 1519 1519 1520 1520 1521 1523 1525 1526 1527 1528 1529 1530 1532 1533 1534 1535 1536 1537 1538 1539 1539 1540 1541 1541 1542 1542 1542 1542 1543 1543 1542 1542 1542 1541 1539 1539 1539 1537 1536 1535 1533 1532 1532 1531 1530 1529 1527 1525 1525 1526 1524 1522 1519 1519 1520 1518 1516 1515 1515 1515 1514 1513 1511 1511 1510 1509 1508 1508
1486 1488 1490 1491 1493 1495 1497 1498 1499 1500 1502 1504 1505 1509 1512 1514 1515 1515 1516 1516 1516 1517 1519 1521 1522 1524 1525 1526 1527 1528 1529 1530 1532 1533 1534 1536 1537 1537 1538 1538 1539 1539 1540 1540 1540 1541 1541 1540 1540 1540 1538 1537 1537 1536 1534 1533 1532 1530 1529 1529 1529 1528 1527 1526 1524 1523 1523 1522 1519 1516 1516 1517 1516 1513 1512 1512 1511 1510 1509 1508 1508 1507 1506 1505 1504
1483 1485 1486 1488 1490 1492 1493 1494 1495 1497 1498 1500 1502 1505 1509 1510 1511 1512 1513 1513 1513 1514 1516 1517 1519 1520 1521 1522 1523 1525 1526 1528 1529 1531 1532 1533 1534 1535 1536 1536 1536 1537 1536 1537 1537 1538 1537 1537 1538 1537 1536 1535 1534 1533 1532 1531 1529 1528 1527 1526 1526 1526 1525 1523 1522 1521 1521 1520 1517 1514 1513 1513 1513 1510 1508 1508 1508 1506 1506 1505 1504 1503 1502 1502 1501
1479 1481 1483 1485 1486 1488 1489 1490 1492 1494 1495 1496 1499 1502 1505 1507 1508 1509 1509 1510 1510 1511 1512 1514 1515 1516 1517 1519 1520 1522 1524 1525 1527 1528 1530 1531 1532 1533 1533 1533 1534 1534 1533 1534 1534 1533 1533 1535 1536 1535 1534 1533 1531 1530 1530 1528 1527 1526 1525 1524 1524 1523 1522 1521 1519 1518 1518 1518 1516 1512 1510 1510 1510 1507 1505 1505 1504 1502 1502 1501 1501 1500 1499 1498 1498
1475 1477 1479 1481 1482 1484 1485 1487 1489 1491 1492 1493 1496 1499 1502 1504 1505 1506 1506 1506 1506 1507 1509 1511 1512 1513 1515 1516 1518 1520 1521 1523 1525 1526 1528 1529 1530 1531 1530 1530 1531 1531 1531 1531 1529 1527 1529 1533 1533 1532 1531 1531 1529 1527 1527 1526 1524 1523 1523 1522 1521 1520 1519 1517 1516 1515 1515 1515 1514 1510 1507 1507 1507 1504 1501 1501 1500 1499 1499 1498 1497 1496 1496 1494 1493
1471 1473 1475 1477 1479 1480 1482 1484 1486 1487 1489 1490 1493 1496 1499 1500 1502 1502 1503 1503 1504 1505 1507 1508 1509 1511 1512 1514 1516 1517 1519 1520 1522 1524 1526 1527 1527 1527 1527 1528 1528 1528 1528 1528 1524 1524 1528 1530 1528 1528 1528 1527 1526 1525 1524 1523 1522 1521 1520 1519 1519 1518 1516 1514 1513 1512 1512 1512 1511 1508 1504 1503 1503 1501 1498 1498 1497 1495 1495 1494 1493 1492 1491 1490 1488
1467 1469 1471 1473 1475 1477 1479 1481 1483 1484 1485 1487 1489 1492 1494 1496 1498 1499 1499 1500 1501 1502 1504 1506 1507 1508 1509 1511 1513 1515 1515 1517 1520 1522 1523 1524 1524 1524 1524 1525 1525 1525 1525 1524 1520 1520 1524 1524 1523 1524 1524 1523 1523 1522 1521 1521 1519 1519 1517 1516 1516 1516 1514 1512 1510 1509 1509 1509 1508 1505 1502 1500 1500 1498 1495 1494 1493 1491 1490 1489 1488 1487 1486 1485 1483
1463 1465 1467 1470 1472 1474 1476 1478 1479 1481 1482 1483 1485 1488 1490 1492 1494 1495 1496 1497 1498 1500 1502 1503 1504 1505 1507 1509 1510 1511 1513 1515 1517 1519 1520 1520 1520 1520 1521 1522 1522 1522 1522 1520 1517 1517 1519 1520 1520 1521 1520 1519 1519 1518 1518 1518 1517 1516 1515 1514 1513 1513 1511 1510 1508 1506 1506 1506 1505 1503 1500 1498 1497 1495 1492 1489 1487 1486 1486 1484 1483 1482 1481 1480 1479
1459 1462 1464 1467 1469 1471 1473 1475 1476 1478 1479 1480 1483 1485 1487 1489 1490 1490 1492 1493 1495 1497 1499 1500 1501 1502 1504 1506 1507 1509 1510 1513 1515 1516 1517 1517 1516 1517 1518 1518 1518 1519 1518 1517 1515 1516 1517 1518 1518 1518 1517 1516 1516 1515 1516 1516 1515 1514 1513 1511 1511 1510 1508 1508 1506 1504 1503 1502 1502 1500 1497 1494 1493 1492 1490 1486 1482 1480 1480 1480 1479 1478 1478 1477 1475